[[{"header":{"parameterUnit":"m.s-1","parameterCategory":1,"la1":30.2991,"la2":30.254,"lo1":-89.0895,"lo2":-89.0444,"dy":0.0017,"dx":0.0017,"nx":28,"ny":28,"refTime":"2025-07-05T03:00:00:Z","depth":0,"parameterNumber":2,"parameterNumberName":"U-component_of_WINDS"},"data":[0,0,0,0,0,0,0,0,0,0,0,0,0,0,0,0,0,0,0,0,0,0,0,0,0,0,0,0,0,0,0,0,0,0,0,0,0,0,0,0,0,0,0,0,0,0,0,0,0,0,0,0,0,0,0,0,0,0,0.819,0.8191,0,0.8303,0.8304,0.8306,0.8305,0.8304,0.8302,0.8301,0.8423,0.8427,0.8432,0,0,0,0,0,0,0,0,0,0,0,0,0,0.7979,0.7982,0.819,0.8191,0.8193,0.8303,0.8304,0.8306,0.8306,0.8304,0.8302,0.83,0.8421,0.8426,0.8432,0,0,0,0,0,0,0,0,0,0,0,0,0,0.8079,0.7984,0.8189,0.8206,0.8208,0.8302,0.8304,0.8306,0.8306,0.8304,0.8302,0.8299,0.8419,0.8426,0.8433,0.852,0,0,0.8454,0.8457,0,0,0,0,0,0,0,0,0.8073,0.8087,0.8202,0.8205,0.8208,0.8288,0.8274,0.8378,0.8307,0.8269,0.8301,0.8298,0.838,0.839,0.8416,0.8526,0.8531,0.8455,0.8459,0.8462,0.8464,0,0,0,0,0,0,0,0.8066,0.8082,0.8235,0.8203,0.8207,0.8209,0.8221,0.8294,0.8336,0.8272,0.8272,0.8285,0.8381,0.8409,0.8419,0.8533,0.8454,0.8461,0.8465,0.8468,0.8721,0.8723,0,0,0,0,0,0,0.8055,0.8076,0.8231,0.8238,0.8133,0.8214,0.8228,0.8264,0.8335,0.8343,0.8287,0.8285,0.8399,0.8411,0.8423,0.8531,0.8462,0.8468,0.8472,0.8718,0.8721,0.8724,0,0,0,0,0,0,0.8051,0.8069,0.8227,0.8157,0.8177,0.822,0.8262,0.8268,0.8296,0.8346,0.8354,0.8308,0.8397,0.8414,0.8496,0.8535,0.8471,0.8478,0.8715,0.8719,0.8723,0.8745,0,0,0,0,0,0,0.8045,0.8067,0.81,0.8158,0.8181,0.8296,0.8264,0.8272,0.8307,0.8306,0.8368,0.8376,0.8397,0.8485,0.8503,0.8543,0.8483,0.8712,0.8717,0.8721,0.8741,0.875,0.8757,0,0,0,0,0,0.8037,0.8103,0.8102,0.812,0.8222,0.8298,0.8311,0.8332,0.831,0.8344,0.8377,0.8374,0.8527,0.8494,0.8513,0.8556,0.871,0.8716,0.8721,0.8738,0.8748,0.8756,0,0,0,0,0,0,0.8051,0.8111,0.811,0.8196,0.8242,0.8298,0.8341,0.8342,0.8396,0.8392,0.8417,0.8431,0.8513,0.8543,0.8505,0.8645,0.8616,0.8626,0.8622,0.8632,0.864,0.8631,0.8489,0,0,0,0,0,0.8063,0.8118,0.8168,0.824,0.8262,0.8298,0.8331,0.8343,0.8392,0.8412,0.845,0.8499,0.8558,0.8597,0.8654,0.8746,0.876,0.8785,0.8792,0.8798,0.8807,0.8858,0.887,0.8743,0.8743,0.8743,0,0,0.8091,0.813,0.8164,0.8243,0.828,0.8338,0.8314,0.8376,0.8419,0.8422,0.8501,0.8531,0.8588,0.8675,0.8715,0.8702,0.8845,0.8806,0.881,0.8816,0.8865,0.8877,0.8888,0.8747,0.8746,0.8746,0,0,0.817,0.8205,0.8268,0.8305,0.836,0.8383,0.8398,0.8454,0.8473,0.8553,0.8556,0.8609,0.871,0.875,0.8784,0.8878,0.8879,0.8896,0.8936,0.8985,0.8995,0.9004,0.9038,0.905,0.8905,0.8905,0.8905,0,0.8197,0.8282,0.8301,0.8363,0.8398,0.8401,0.8466,0.8502,0.8574,0.8599,0.8583,0.8709,0.8748,0.8844,0.8867,0.8894,0.8913,0.889,0.8992,0.9001,0.901,0.9043,0.9055,0.8906,0.8906,0.8906,0.8906,0,0.8314,0.8373,0.8418,0.8485,0.8525,0.8589,0.8618,0.8657,0.8666,0.8691,0.8772,0.8818,0.8885,0.8909,0.8918,0.9007,0.8997,0.8986,0.8958,0.9024,0.9055,0.9067,0.8909,0.8908,0.8908,0.8907,0,0,0.8405,0.8481,0.8497,0.8527,0.8588,0.8635,0.8699,0.8762,0.8796,0.8845,0.89,0.8986,0.8976,0.9014,0.9028,0.9071,0.9143,0.9055,0.9057,0.907,0.9244,0.9252,0.9266,0.9143,0.9146,0.9148,0.924,0,0.8491,0.8602,0.8621,0.8719,0.8775,0.8778,0.8834,0.8878,0.8904,0.8956,0.8984,0.9044,0.9027,0.905,0.9093,0.9125,0.9179,0.9119,0.9196,0.9199,0.9182,0.9282,0.9291,0.9375,0.9252,0.9254,0.9255,0,0.8606,0.8656,0.876,0.8813,0.8837,0.8886,0.8946,0.8995,0.9046,0.9061,0.9103,0.9112,0.918,0.9148,0.9243,0.9202,0.9235,0.9256,0.9259,0.9268,0.9231,0.9294,0.9403,0.9415,0.9275,0.9273,0.9272,0,0.8662,0.8756,0.883,0.8856,0.892,0.8955,0.8983,0.9032,0.9068,0.9121,0.9145,0.9206,0.9239,0.9287,0.9312,0.9286,0.9405,0.9375,0.9421,0.942,0.9446,0.9444,0.9562,0.9467,0.9467,0.9466,0.9466,0,0.8756,0.8819,0.8856,0.8902,0.8973,0.8994,0.9065,0.9093,0.9136,0.9188,0.9196,0.9245,0.9275,0.933,0.935,0.9426,0.9441,0.9456,0.9461,0.9456,0.9454,0.9478,0.9472,0.947,0.9469,0.9468,0.9468,0,0.8831,0.8858,0.8939,0.8992,0.9007,0.9057,0.9104,0.9149,0.9174,0.924,0.9257,0.9297,0.9361,0.939,0.947,0.9484,0.957,0.9571,0.9552,0.9554,0.9598,0.9593,0.9735,0.9755,0.9647,0.9648,0.9649,0,0.8889,0.8938,0.8996,0.903,0.9059,0.9115,0.9152,0.9176,0.9214,0.9275,0.9314,0.9377,0.9429,0.9532,0.9569,0.963,0.9633,0.9678,0.9642,0.9635,0.9633,0.963,0.9635,0.9685,0.9686,0.9687,0.9687,0,0.899,0.9,0.9053,0.911,0.9153,0.92,0.9246,0.9274,0.9305,0.9348,0.9413,0.9453,0.9534,0.9597,0.9661,0.9692,0.9696,0.9698,0.9712,0.9707,0.9694,0.9702,0.957,0.9695,0.9694,0.9694,0.9693,0.9693,0.9058,0.9101,0.9149,0.9207,0.9243,0.9286,0.9331,0.936,0.9414,0.948,0.9491,0.956,0.961,0.9695,0.9729,0.9784,0.9773,0.9793,0.9799,0.9803,0.9805,0.9685,0.9796,0.9795,0.9795,0.9795,0.9795,0,0.9159,0.9189,0.9243,0.9305,0.9351,0.9349,0.9399,0.9438,0.9498,0.9544,0.9594,0.9669,0.973,0.9772,0.9835,0.9871,0.9874,0.9886,0.9884,0.9891,0.9811,0.9793,0.9883,0.9883,0.9883,0.9883,0.9883,0.9883,0.9217,0.929,0.9306,0.9397,0.9428,0.9494,0.9523,0.9563,0.9599,0.9681,0.9732,0.9757,0.9802,0.9868,0.9925,0.9935,0.9958,0.9971,0.9982,0.9906,0.9897,0.9888,0.9871,0.9976,0.9976,1.0057,1.0058,1.0059]},{"header":{"parameterUnit":"m.s-1","parameterCategory":1,"la1":30.2991,"la2":30.254,"lo1":-89.0895,"lo2":-89.0444,"dy":0.0017,"dx":0.0017,"nx":28,"ny":28,"refTime":"2025-07-05T03:00:00:Z","depth":0,"parameterNumber":3,"parameterNumberName":"V-component_of_WINDS"},"data":[0,0,0,0,0,0,0,0,0,0,0,0,0,0,0,0,0,0,0,0,0,0,0,0,0,0,0,0,0,0,0,0,0,0,0,0,0,0,0,0,0,0,0,0,0,0,0,0,0,0,0,0,0,0,0,0,0,0,0.6722,0.6723,0,0.6794,0.6795,0.6795,0.6676,0.6672,0.6668,0.6664,0.6738,0.6744,0.675,0,0,0,0,0,0,0,0,0,0,0,0,0,0.6479,0.6484,0.6722,0.6723,0.6724,0.6794,0.6795,0.6796,0.6677,0.6672,0.6667,0.6662,0.6737,0.6743,0.675,0,0,0,0,0,0,0,0,0,0,0,0,0,0.6571,0.6486,0.6722,0.6673,0.6669,0.6793,0.6795,0.6796,0.6678,0.6672,0.6666,0.666,0.6734,0.6743,0.6751,0.6927,0,0,0.6778,0.6781,0,0,0,0,0,0,0,0,0.6566,0.658,0.6679,0.6676,0.6672,0.672,0.6736,0.684,0.6679,0.6675,0.6664,0.6657,0.6737,0.6745,0.6772,0.693,0.6933,0.6778,0.6784,0.6787,0.679,0,0,0,0,0,0,0,0.656,0.6576,0.675,0.6681,0.6677,0.6646,0.6653,0.6755,0.6739,0.6675,0.6666,0.6676,0.6734,0.6764,0.6773,0.6934,0.6778,0.6786,0.6791,0.6795,0.7235,0.7241,0,0,0,0,0,0,0.656,0.6572,0.6748,0.6752,0.6603,0.6656,0.6663,0.6711,0.6738,0.6736,0.6681,0.667,0.6752,0.6763,0.6775,0.6979,0.6787,0.6795,0.68,0.7228,0.7236,0.7243,0,0,0,0,0,0,0.6555,0.6577,0.6745,0.666,0.6679,0.6666,0.6721,0.6715,0.6745,0.6743,0.6739,0.6715,0.6748,0.6763,0.6889,0.698,0.6799,0.6807,0.7221,0.7231,0.724,0.739,0,0,0,0,0,0,0.6549,0.6576,0.6643,0.6662,0.6684,0.6859,0.6727,0.6721,0.676,0.6747,0.6773,0.6772,0.6744,0.6876,0.6897,0.6988,0.6814,0.7213,0.7225,0.7237,0.7377,0.7404,0.7427,0,0,0,0,0,0.654,0.6684,0.6647,0.6669,0.6768,0.6864,0.6877,0.6842,0.6768,0.6835,0.6833,0.6771,0.6967,0.689,0.6913,0.7008,0.7207,0.7222,0.7236,0.7366,0.7399,0.7426,0,0,0,0,0,0,0.6677,0.6686,0.6645,0.6799,0.6832,0.6844,0.6928,0.6878,0.6933,0.6918,0.6872,0.6879,0.7013,0.7023,0.6938,0.7177,0.7074,0.7094,0.7165,0.7196,0.7221,0.7215,0.6821,0,0,0,0,0,0.6725,0.6803,0.6806,0.6941,0.696,0.6941,0.6982,0.6951,0.6983,0.6997,0.7004,0.7037,0.7105,0.7152,0.7215,0.7378,0.738,0.7454,0.7479,0.7499,0.7517,0.7599,0.7631,0.7291,0.7291,0.7291,0,0,0.6825,0.6839,0.6891,0.6969,0.6991,0.7071,0.6954,0.7045,0.7103,0.7011,0.7129,0.7135,0.7169,0.7313,0.7377,0.7326,0.7611,0.7518,0.7535,0.7541,0.7618,0.765,0.7678,0.7301,0.73,0.7298,0,0,0.7048,0.7068,0.718,0.7204,0.7237,0.7223,0.7251,0.727,0.727,0.7388,0.7319,0.7387,0.7508,0.7533,0.7562,0.779,0.7734,0.7812,0.7942,0.8023,0.8049,0.8073,0.8151,0.818,0.7829,0.783,0.783,0,0.7168,0.7286,0.7245,0.7339,0.7374,0.7293,0.7405,0.743,0.7484,0.7509,0.745,0.7596,0.7613,0.776,0.7815,0.7843,0.787,0.7808,0.8049,0.8072,0.8093,0.8167,0.8197,0.7839,0.7838,0.7837,0.7836,0,0.743,0.7513,0.76,0.7651,0.7696,0.7799,0.7772,0.7822,0.7787,0.7779,0.7898,0.7916,0.7979,0.8012,0.798,0.8153,0.812,0.8056,0.7952,0.8135,0.8203,0.8232,0.7852,0.7848,0.7846,0.7843,0,0,0.7743,0.7767,0.7799,0.7819,0.7849,0.7912,0.801,0.807,0.8113,0.8151,0.8231,0.8332,0.8272,0.8305,0.8275,0.8346,0.8521,0.8273,0.8273,0.8316,0.8709,0.8754,0.8788,0.8484,0.849,0.8494,0.8704,0,0.7961,0.813,0.8094,0.8259,0.8333,0.8255,0.834,0.8367,0.8361,0.8422,0.8415,0.8486,0.8404,0.8422,0.849,0.8486,0.8599,0.847,0.8556,0.8559,0.8547,0.8824,0.8874,0.9072,0.8731,0.8736,0.8739,0,0.824,0.8286,0.8458,0.8471,0.8501,0.8578,0.8628,0.8689,0.8716,0.8706,0.8741,0.8696,0.8791,0.8686,0.8815,0.8728,0.8761,0.8764,0.8771,0.8775,0.8659,0.8834,0.9135,0.9163,0.8782,0.8778,0.8775,0,0.8446,0.8552,0.8667,0.8687,0.8707,0.8762,0.8773,0.8794,0.8831,0.8875,0.8898,0.8954,0.8984,0.9027,0.8997,0.8924,0.9129,0.9023,0.9122,0.9123,0.9168,0.9165,0.9475,0.9194,0.9193,0.9192,0.9192,0,0.8692,0.88,0.8759,0.883,0.8947,0.8904,0.9021,0.9022,0.9041,0.9109,0.9047,0.9112,0.9069,0.9131,0.9108,0.9216,0.9231,0.9224,0.9217,0.9229,0.9229,0.9248,0.9232,0.92,0.9199,0.9197,0.9196,0,0.8942,0.892,0.9039,0.9047,0.9051,0.9137,0.9142,0.9207,0.9195,0.9282,0.93,0.9282,0.9351,0.9325,0.94,0.9384,0.9521,0.9496,0.9511,0.9504,0.9603,0.9593,0.9934,0.9975,0.967,0.9673,0.9675,0,0.91,0.918,0.9195,0.9236,0.925,0.9317,0.9354,0.9314,0.9355,0.939,0.945,0.9513,0.956,0.9674,0.9667,0.9722,0.9696,0.9812,0.9704,0.9712,0.9694,0.9688,0.9695,0.9833,0.9837,0.984,0.9842,0,0.9381,0.9365,0.942,0.9471,0.9516,0.9555,0.9587,0.9624,0.9585,0.9634,0.9703,0.974,0.9813,0.9876,0.9924,0.9934,0.9881,0.9876,0.9901,0.9913,0.9917,0.9912,0.9567,0.9868,0.9865,0.9864,0.9862,0.9861,0.9587,0.9653,0.9673,0.9735,0.9755,0.9786,0.9846,0.9841,0.9897,0.9953,0.9926,1.0005,1.0026,1.0085,1.0102,1.0162,1.0116,1.0154,1.0163,1.0172,1.0183,0.9909,1.0171,1.017,1.0169,1.0169,1.0168,0,0.9862,0.987,0.9928,0.9974,1.0023,0.9968,1.0,1.0044,1.0114,1.0138,1.0186,1.0262,1.0322,1.0318,1.0372,1.042,1.0397,1.0436,1.043,1.0433,1.0222,1.0194,1.0453,1.0453,1.0453,1.0453,1.0453,1.0453,1.0011,1.0118,1.0103,1.0219,1.0225,1.0301,1.0324,1.0351,1.0369,1.0458,1.0506,1.0503,1.0515,1.0569,1.0619,1.0617,1.0638,1.0685,1.0673,1.0476,1.0448,1.0421,1.0394,1.0691,1.0691,1.0878,1.088,1.0881]}]]